| time (UTC) | temp C | wind direction | speed KPH | gust KPH | rain 1hr cm | rain 24hr cm | rain mn cm | humidity % | barometer mb |
| 20260502170424 | 14 | 237 | 9.7 | 14.5 | 0.00 | 0.00 | 0.00 | 34 | 1017.8 |
| 20260502163908 | 13 | 185 | 1.6 | 8.0 | 0.00 | 0.00 | 0.00 | 37 | 1017.9 |
| 20260502163404 | 13 | 258 | 9.7 | 12.9 | 0.00 | 0.00 | 0.00 | 35 | 1018.0 |
| 20260502162902 | 13 | 245 | 4.8 | 4.8 | 0.00 | 0.00 | 0.00 | 36 | 1018.2 |
| 20260502162358 | 13 | 310 | 8.0 | 14.5 | 0.00 | 0.00 | 0.00 | 37 | 1018.3 |
| 20260502161855 | 13 | 308 | 11.3 | 17.7 | 0.00 | 0.00 | 0.00 | 37 | 1018.3 |
| 20260502161351 | 12 | 200 | 3.2 | 8.0 | 0.00 | 0.00 | 0.00 | 37 | 1018.4 |
| 20260502160849 | 13 | 311 | 9.7 | 16.1 | 0.00 | 0.00 | 0.00 | 37 | 1018.4 |
| 20260502160348 | 12 | 307 | 6.4 | 9.7 | 0.00 | 0.00 | 0.00 | 38 | 1018.3 |
| 20260502152328 | 12 | 265 | 4.8 | 8.0 | 0.00 | 0.00 | 0.00 | 41 | 1018.5 |
| 20260502151826 | 12 | 258 | 9.7 | 16.1 | 0.00 | 0.00 | 0.00 | 43 | 1018.8 |
| 20260502151322 | 12 | 258 | 4.8 | 9.7 | 0.00 | 0.00 | 0.00 | 42 | 1018.9 |
| 20260502150820 | 11 | 205 | 3.2 | 11.3 | 0.00 | 0.00 | 0.00 | 45 | 1018.7 |
| 20260502150316 | 11 | 233 | 4.8 | 9.7 | 0.00 | 0.00 | 0.00 | 47 | 1019.2 |
| 20260502130705 | 6 | 242 | 3.2 | 8.0 | 0.00 | 0.00 | 0.00 | 61 | 1019.5 |
| 20260502130202 | 6 | 228 | 3.2 | 4.8 | 0.00 | 0.00 | 0.00 | 61 | 1019.6 |
| 20260502123648 | 5 | 195 | 1.6 | 4.8 | 0.00 | 0.00 | 0.00 | 65 | 1019.5 |
| 20260502123145 | 5 | 190 | 1.6 | 3.2 | 0.00 | 0.00 | 0.00 | 66 | 1019.6 |
| 20260502122641 | 4 | 187 | 0.0 | 0.0 | 0.00 | 0.00 | 0.00 | 66 | 1019.4 |
| 20260502122138 | 4 | 181 | 0.0 | 4.8 | 0.00 | 0.00 | 0.00 | 66 | 1019.4 |
| 20260502121636 | 4 | 202 | 1.6 | 1.6 | 0.00 | 0.00 | 0.00 | 66 | 1019.5 |
| 20260502121133 | 3 | 189 | 0.0 | 0.0 | 0.00 | 0.00 | 0.00 | 69 | 1019.5 |
| 20260502120630 | 3 | 193 | 1.6 | 1.6 | 0.00 | 0.00 | 0.00 | 68 | 1019.3 |
| 20260502120127 | 3 | 187 | 0.0 | 0.0 | 0.00 | 0.00 | 0.00 | 69 | 1019.2 |
| 20260502115624 | 3 | 236 | 4.8 | 4.8 | 0.00 | 0.00 | 0.00 | 70 | 1019.2 |
| 20260502115120 | 3 | 196 | 3.2 | 4.8 | 0.00 | 0.00 | 0.00 | 71 | 1019.2 |
| 20260502114616 | 2 | 222 | 3.2 | 4.8 | 0.00 | 0.00 | 0.00 | 71 | 1019.2 |
| 20260502114114 | 2 | 221 | 1.6 | 3.2 | 0.00 | 0.00 | 0.00 | 71 | 1019.1 |
| 20260502113611 | 2 | 202 | 1.6 | 8.0 | 0.00 | 0.00 | 0.00 | 72 | 1019.0 |
| 20260502113110 | 2 | 203 | 1.6 | 3.2 | 0.00 | 0.00 | 0.00 | 73 | 1019.1 |
| 20260502112607 | 2 | 196 | 0.0 | 0.0 | 0.00 | 0.00 | 0.00 | 75 | 1018.9 |
| 20260502112104 | 2 | 200 | 0.0 | 0.0 | 0.00 | 0.00 | 0.00 | 74 | 1018.8 |
| 20260502111602 | 2 | 202 | 0.0 | 1.6 | 0.00 | 0.00 | 0.00 | 75 | 1019.1 |
| 20260502111059 | 2 | 204 | 1.6 | 3.2 | 0.00 | 0.00 | 0.00 | 74 | 1019.2 |
| 20260502110556 | 2 | 203 | 1.6 | 1.6 | 0.00 | 0.00 | 0.00 | 74 | 1018.8 |
| 20260502110054 | 2 | 203 | 1.6 | 1.6 | 0.00 | 0.00 | 0.00 | 73 | 1018.8 |
| 20260502105551 | 2 | 204 | 1.6 | 3.2 | 0.00 | 0.00 | 0.00 | 74 | 1019.0 |
| 20260502105048 | 2 | 210 | 3.2 | 3.2 | 0.00 | 0.00 | 0.00 | 74 | 1019.0 |
| 20260502104545 | 2 | 210 | 4.8 | 4.8 | 0.00 | 0.00 | 0.00 | 73 | 1018.9 |
| 20260502104043 | 2 | 212 | 1.6 | 3.2 | 0.00 | 0.00 | 0.00 | 73 | 1019.0 |
| 20260502103540 | 2 | 213 | 3.2 | 3.2 | 0.00 | 0.00 | 0.00 | 72 | 1019.0 |
| 20260502103038 | 2 | 205 | 1.6 | 4.8 | 0.00 | 0.00 | 0.00 | 72 | 1019.0 |
| 20260502102534 | 2 | 206 | 1.6 | 3.2 | 0.00 | 0.00 | 0.00 | 72 | 1019.1 |
| 20260502102032 | 2 | 211 | 1.6 | 3.2 | 0.00 | 0.00 | 0.00 | 72 | 1019.0 |
| 20260502101529 | 2 | 210 | 1.6 | 3.2 | 0.00 | 0.00 | 0.00 | 72 | 1019.0 |
| 20260502101028 | 2 | 205 | 1.6 | 3.2 | 0.00 | 0.00 | 0.00 | 71 | 1019.0 |
| 20260502100526 | 2 | 213 | 3.2 | 3.2 | 0.00 | 0.00 | 0.00 | 71 | 1018.8 |
| 20260502091500 | 2 | 204 | 1.6 | 1.6 | 0.00 | 0.00 | 0.00 | 72 | 1018.9 |
| 20260502090958 | 2 | 205 | 1.6 | 3.2 | 0.00 | 0.00 | 0.00 | 71 | 1018.8 |
| 20260502090454 | 3 | 202 | 3.2 | 3.2 | 0.00 | 0.00 | 0.00 | 70 | 1019.0 |
| 20260502071349 | 4 | 215 | 3.2 | 3.2 | 0.00 | 0.00 | 0.00 | 65 | 1019.0 |
| 20260502070847 | 4 | 212 | 1.6 | 1.6 | 0.00 | 0.00 | 0.00 | 65 | 1019.0 |
| 20260502070344 | 4 | 207 | 1.6 | 3.2 | 0.00 | 0.00 | 0.00 | 65 | 1019.1 |
| 20260502065844 | 4 | 215 | 3.2 | 3.2 | 0.00 | 0.00 | 0.00 | 65 | 1019.0 |
| 20260502065341 | 4 | 202 | 0.0 | 1.6 | 0.00 | 0.00 | 0.00 | 66 | 1019.1 |
| 20260502064839 | 4 | 204 | 0.0 | 1.6 | 0.00 | 0.00 | 0.00 | 66 | 1019.4 |
| 20260502064337 | 4 | 221 | 0.0 | 1.6 | 0.00 | 0.00 | 0.00 | 67 | 1019.2 |
| 20260502063833 | 4 | 201 | 1.6 | 1.6 | 0.00 | 0.00 | 0.00 | 66 | 1019.1 |
| 20260502063331 | 4 | 200 | 1.6 | 1.6 | 0.00 | 0.00 | 0.00 | 66 | 1019.2 |
| 20260502062828 | 5 | 198 | 0.0 | 1.6 | 0.00 | 0.00 | 0.00 | 65 | 1019.3 |
| 20260502062326 | 5 | 201 | 1.6 | 1.6 | 0.00 | 0.00 | 0.00 | 63 | 1019.3 |
| 20260502061825 | 5 | 203 | 0.0 | 0.0 | 0.00 | 0.00 | 0.00 | 63 | 1019.4 |
| 20260502061322 | 5 | 202 | 0.0 | 0.0 | 0.00 | 0.00 | 0.00 | 61 | 1019.1 |
| 20260502060817 | 5 | 205 | 0.0 | 0.0 | 0.00 | 0.00 | 0.00 | 61 | 1019.3 |
| 20260502060312 | 5 | 206 | 1.6 | 1.6 | 0.00 | 0.00 | 0.00 | 61 | 1019.2 |
| 20260502055811 | 5 | 204 | 0.0 | 1.6 | 0.00 | 0.00 | 0.00 | 59 | 1019.2 |
| 20260502055308 | 5 | 220 | 1.6 | 3.2 | 0.00 | 0.00 | 0.00 | 59 | 1019.3 |
| 20260502054808 | 5 | 207 | 1.6 | 3.2 | 0.00 | 0.00 | 0.00 | 58 | 1019.3 |
| 20260502054305 | 5 | 205 | 0.0 | 1.6 | 0.00 | 0.00 | 0.00 | 59 | 1019.4 |
| 20260502053802 | 5 | 207 | 1.6 | 1.6 | 0.00 | 0.00 | 0.00 | 57 | 1019.3 |
| 20260502053259 | 5 | 205 | 1.6 | 1.6 | 0.00 | 0.00 | 0.00 | 57 | 1019.4 |
| 20260502052757 | 5 | 207 | 1.6 | 1.6 | 0.00 | 0.00 | 0.00 | 57 | 1019.0 |
| 20260502052255 | 5 | 208 | 1.6 | 3.2 | 0.00 | 0.00 | 0.00 | 57 | 1019.2 |
| 20260502051752 | 5 | 215 | 1.6 | 3.2 | 0.00 | 0.00 | 0.00 | 56 | 1019.3 |
| 20260502051251 | 6 | 207 | 1.6 | 3.2 | 0.00 | 0.00 | 0.00 | 56 | 1019.3 |
| 20260502050747 | 6 | 209 | 1.6 | 3.2 | 0.00 | 0.00 | 0.00 | 56 | 1019.1 |
| 20260502050243 | 6 | 221 | 1.6 | 3.2 | 0.00 | 0.00 | 0.00 | 55 | 1019.2 |
| 20260502045740 | 6 | 215 | 1.6 | 3.2 | 0.00 | 0.00 | 0.00 | 55 | 1019.1 |
| 20260502045237 | 6 | 223 | 1.6 | 3.2 | 0.00 | 0.00 | 0.00 | 55 | 1019.0 |
| 20260502044734 | 6 | 223 | 3.2 | 3.2 | 0.00 | 0.00 | 0.00 | 54 | 1019.1 |
| 20260502044230 | 6 | 221 | 1.6 | 3.2 | 0.00 | 0.00 | 0.00 | 55 | 1019.2 |
| 20260502043728 | 6 | 210 | 1.6 | 3.2 | 0.00 | 0.00 | 0.00 | 54 | 1019.0 |
| 20260502043225 | 6 | 208 | 1.6 | 3.2 | 0.00 | 0.00 | 0.00 | 55 | 1019.2 |
| 20260502042724 | 6 | 206 | 1.6 | 1.6 | 0.00 | 0.00 | 0.00 | 55 | 1019.1 |
| 20260502042222 | 6 | 209 | 0.0 | 0.0 | 0.00 | 0.00 | 0.00 | 54 | 1019.0 |
| 20260502041719 | 6 | 204 | 0.0 | 0.0 | 0.00 | 0.00 | 0.00 | 54 | 1019.1 |
| 20260502041216 | 6 | 203 | 0.0 | 0.0 | 0.00 | 0.00 | 0.00 | 53 | 1019.1 |
| 20260502040713 | 6 | 203 | 1.6 | 1.6 | 0.00 | 0.00 | 0.00 | 52 | 1019.1 |
| 20260502040210 | 6 | 204 | 1.6 | 1.6 | 0.00 | 0.00 | 0.00 | 52 | 1019.2 |
| 20260502035706 | 6 | 206 | 1.6 | 3.2 | 0.00 | 0.00 | 0.00 | 51 | 1019.2 |
| 20260502035203 | 6 | 209 | 0.0 | 0.0 | 0.00 | 0.00 | 0.00 | 51 | 1019.2 |
| 20260502034701 | 6 | 203 | 0.0 | 0.0 | 0.00 | 0.00 | 0.00 | 50 | 1019.0 |
| 20260502034159 | 7 | 203 | 0.0 | 0.0 | 0.00 | 0.00 | 0.00 | 50 | 1019.2 |
| 20260502033657 | 7 | 203 | 0.0 | 1.6 | 0.00 | 0.00 | 0.00 | 48 | 1019.1 |
| 20260502033154 | 7 | 208 | 1.6 | 3.2 | 0.00 | 0.00 | 0.00 | 47 | 1019.3 |
| 20260502032650 | 7 | 216 | 1.6 | 1.6 | 0.00 | 0.00 | 0.00 | 47 | 1019.2 |
| 20260502032147 | 7 | 209 | 1.6 | 3.2 | 0.00 | 0.00 | 0.00 | 45 | 1019.1 |
| 20260502031644 | 7 | 209 | 1.6 | 1.6 | 0.00 | 0.00 | 0.00 | 45 | 1019.4 |
| 20260502031142 | 7 | 203 | 1.6 | 1.6 | 0.00 | 0.00 | 0.00 | 48 | 1019.2 |
| 20260502030641 | 7 | 210 | 3.2 | 3.2 | 0.00 | 0.00 | 0.00 | 47 | 1019.1 |
| 20260502030139 | 7 | 204 | 1.6 | 1.6 | 0.00 | 0.00 | 0.00 | 45 | 1019.2 |
| 20260502025635 | 7 | 216 | 1.6 | 3.2 | 0.00 | 0.00 | 0.00 | 43 | 1019.2 |
| 20260502025133 | 7 | 209 | 0.0 | 0.0 | 0.00 | 0.00 | 0.00 | 44 | 1019.1 |
| 20260502024631 | 7 | 204 | 0.0 | 0.0 | 0.00 | 0.00 | 0.00 | 43 | 1019.0 |
| 20260502024129 | 7 | 207 | 0.0 | 0.0 | 0.00 | 0.00 | 0.00 | 45 | 1019.1 |
| 20260502023627 | 7 | 203 | 0.0 | 0.0 | 0.00 | 0.00 | 0.00 | 45 | 1019.1 |
| 20260502023124 | 7 | 203 | 0.0 | 0.0 | 0.00 | 0.00 | 0.00 | 45 | 1019.0 |
| 20260502022620 | 8 | 203 | 0.0 | 0.0 | 0.00 | 0.00 | 0.00 | 43 | 1019.0 |
| 20260502022118 | 8 | 207 | 0.0 | 0.0 | 0.00 | 0.00 | 0.00 | 43 | 1019.0 |
| 20260502021615 | 8 | 203 | 0.0 | 0.0 | 0.00 | 0.00 | 0.00 | 44 | 1019.1 |
| 20260502021112 | 8 | 202 | 0.0 | 0.0 | 0.00 | 0.00 | 0.00 | 43 | 1019.0 |
| 20260502020610 | 8 | 202 | 0.0 | 0.0 | 0.00 | 0.00 | 0.00 | 42 | 1019.0 |
| 20260502020106 | 8 | 202 | 0.0 | 0.0 | 0.00 | 0.00 | 0.00 | 41 | 1019.0 |
| 20260502015604 | 8 | 203 | 0.0 | 0.0 | 0.00 | 0.00 | 0.00 | 41 | 1018.9 |
| 20260502015100 | 9 | 202 | 0.0 | 0.0 | 0.00 | 0.00 | 0.00 | 40 | 1018.9 |
| 20260502014557 | 9 | 201 | 0.0 | 0.0 | 0.00 | 0.00 | 0.00 | 39 | 1018.7 |
| 20260502014054 | 9 | 200 | 0.0 | 0.0 | 0.00 | 0.00 | 0.00 | 38 | 1018.6 |
| 20260502013549 | 10 | 200 | 0.0 | 1.6 | 0.00 | 0.00 | 0.00 | 37 | 1018.7 |
| 20260502013046 | 10 | 203 | 1.6 | 1.6 | 0.00 | 0.00 | 0.00 | 37 | 1018.7 |
| 20260502012543 | 10 | 225 | 1.6 | 1.6 | 0.00 | 0.00 | 0.00 | 36 | 1018.8 |
| 20260502012041 | 10 | 205 | 0.0 | 1.6 | 0.00 | 0.00 | 0.00 | 36 | 1018.7 |
| 20260502011538 | 10 | 227 | 1.6 | 1.6 | 0.00 | 0.00 | 0.00 | 36 | 1018.6 |
| 20260502011034 | 10 | 240 | 3.2 | 3.2 | 0.00 | 0.00 | 0.00 | 35 | 1018.6 |
| 20260502010532 | 10 | 255 | 3.2 | 4.8 | 0.00 | 0.00 | 0.00 | 34 | 1018.5 |
| 20260502010028 | 10 | 236 | 4.8 | 8.0 | 0.00 | 0.00 | 0.00 | 34 | 1018.7 |
| 20260502005526 | 11 | 239 | 3.2 | 9.7 | 0.00 | 0.00 | 0.00 | 33 | 1018.6 |
| 20260502005023 | 11 | 256 | 3.2 | 4.8 | 0.00 | 0.00 | 0.00 | 33 | 1018.7 |
| 20260502004519 | 11 | 234 | 3.2 | 8.0 | 0.00 | 0.00 | 0.00 | 33 | 1018.3 |
| 20260502004016 | 11 | 246 | 3.2 | 4.8 | 0.00 | 0.00 | 0.00 | 34 | 1018.6 |
| 20260502003514 | 11 | 246 | 3.2 | 4.8 | 0.00 | 0.00 | 0.00 | 33 | 1018.5 |
| 20260502003010 | 11 | 213 | 1.6 | 3.2 | 0.00 | 0.00 | 0.00 | 34 | 1018.5 |
| 20260502002507 | 11 | 219 | 1.6 | 3.2 | 0.00 | 0.00 | 0.00 | 34 | 1018.6 |
| 20260502002004 | 11 | 273 | 4.8 | 8.0 | 0.00 | 0.00 | 0.00 | 33 | 1018.6 |
| 20260502001501 | 11 | 330 | 4.8 | 4.8 | 0.00 | 0.00 | 0.00 | 34 | 1018.5 |
| 20260502000959 | 11 | 244 | 1.6 | 3.2 | 0.00 | 0.00 | 0.00 | 34 | 1018.4 |
| 20260502000457 | 10 | 228 | 3.2 | 8.0 | 0.00 | 0.00 | 0.00 | 34 | 1018.4 |
| 20260501235953 | 10 | 252 | 3.2 | 3.2 | 0.00 | 0.00 | 0.00 | 35 | 1018.6 |
| 20260501235449 | 10 | 281 | 3.2 | 4.8 | 0.00 | 0.00 | 0.00 | 36 | 1018.5 |
| 20260501234944 | 10 | 239 | 1.6 | 4.8 | 0.00 | 0.00 | 0.00 | 35 | 1018.6 |
| 20260501234441 | 10 | 319 | 3.2 | 4.8 | 0.00 | 0.00 | 0.00 | 35 | 1018.6 |
| 20260501233940 | 10 | 214 | 1.6 | 8.0 | 0.00 | 0.00 | 0.00 | 34 | 1018.5 |
| 20260501233437 | 11 | 52 | 3.2 | 4.8 | 0.00 | 0.00 | 0.00 | 34 | 1018.5 |
| 20260501232933 | 11 | 307 | 4.8 | 8.0 | 0.00 | 0.00 | 0.00 | 33 | 1018.5 |
| 20260501232430 | 11 | 56 | 4.8 | 4.8 | 0.00 | 0.00 | 0.00 | 34 | 1018.5 |
| 20260501231927 | 11 | 207 | 1.6 | 9.7 | 0.00 | 0.00 | 0.00 | 33 | 1018.4 |
| 20260501231426 | 11 | 333 | 6.4 | 8.0 | 0.00 | 0.00 | 0.00 | 33 | 1018.4 |
| 20260501230923 | 11 | 205 | 1.6 | 9.7 | 0.00 | 0.00 | 0.00 | 32 | 1018.6 |
| 20260501230422 | 11 | 260 | 4.8 | 4.8 | 0.00 | 0.00 | 0.00 | 33 | 1018.4 |
| 20260501225919 | 11 | 354 | 6.4 | 8.0 | 0.00 | 0.00 | 0.00 | 33 | 1018.5 |
| 20260501225417 | 11 | 333 | 9.7 | 12.9 | 0.00 | 0.00 | 0.00 | 32 | 1018.5 |
| 20260501224912 | 11 | 195 | 3.2 | 11.3 | 0.00 | 0.00 | 0.00 | 33 | 1018.7 |
| 20260501224410 | 11 | 335 | 8.0 | 9.7 | 0.00 | 0.00 | 0.00 | 32 | 1018.4 |
| 20260501223906 | 11 | 306 | 9.7 | 11.3 | 0.00 | 0.00 | 0.00 | 32 | 1018.7 |
| 20260501223402 | 11 | 294 | 6.4 | 12.9 | 0.00 | 0.00 | 0.00 | 32 | 1018.5 |
| 20260501222858 | 12 | 340 | 9.7 | 12.9 | 0.00 | 0.00 | 0.00 | 32 | 1018.6 |
| 20260501222356 | 12 | 240 | 3.2 | 9.7 | 0.00 | 0.00 | 0.00 | 32 | 1018.3 |
| 20260501221852 | 12 | 254 | 3.2 | 4.8 | 0.00 | 0.00 | 0.00 | 33 | 1018.4 |
| 20260501221349 | 12 | 312 | 6.4 | 11.3 | 0.00 | 0.00 | 0.00 | 32 | 1018.6 |
| 20260501220848 | 12 | 233 | 3.2 | 11.3 | 0.00 | 0.00 | 0.00 | 31 | 1018.5 |
| 20260501220345 | 12 | 308 | 4.8 | 9.7 | 0.00 | 0.00 | 0.00 | 33 | 1018.6 |
| 20260501215841 | 12 | 267 | 9.7 | 14.5 | 0.00 | 0.00 | 0.00 | 31 | 1018.5 |
| 20260501215337 | 11 | 352 | 9.7 | 14.5 | 0.00 | 0.00 | 0.00 | 31 | 1018.7 |
| 20260501214833 | 11 | 36 | 4.8 | 9.7 | 0.00 | 0.00 | 0.00 | 32 | 1018.6 |
| 20260501214328 | 11 | 72 | 4.8 | 8.0 | 0.00 | 0.00 | 0.00 | 34 | 1018.4 |
| 20260501213824 | 10 | 101 | 3.2 | 4.8 | 0.00 | 0.00 | 0.00 | 35 | 1018.6 |
| 20260501213321 | 10 | 108 | 3.2 | 4.8 | 0.00 | 0.00 | 0.00 | 34 | 1018.7 |
| 20260501212817 | 10 | 20 | 8.0 | 9.7 | 0.00 | 0.00 | 0.00 | 34 | 1018.7 |
| 20260501212313 | 11 | 322 | 6.4 | 9.7 | 0.00 | 0.00 | 0.00 | 34 | 1018.6 |
| 20260501211811 | 11 | 116 | 3.2 | 12.9 | 0.00 | 0.00 | 0.00 | 33 | 1018.7 |
| 20260501211308 | 11 | 207 | 1.6 | 8.0 | 0.00 | 0.00 | 0.00 | 33 | 1018.8 |
| 20260501210805 | 11 | 249 | 3.2 | 8.0 | 0.00 | 0.00 | 0.00 | 33 | 1018.5 |
| 20260501210302 | 10 | 43 | 4.8 | 9.7 | 0.00 | 0.00 | 0.00 | 35 | 1018.8 |
| 20260501205758 | 10 | 186 | 3.2 | 4.8 | 0.00 | 0.00 | 0.00 | 35 | 1018.7 |
| 20260501205255 | 10 | 34 | 6.4 | 8.0 | 0.00 | 0.00 | 0.00 | 34 | 1018.8 |
| 20260501204752 | 11 | 67 | 8.0 | 12.9 | 0.00 | 0.00 | 0.00 | 36 | 1018.8 |
| 20260501204249 | 10 | 107 | 4.8 | 4.8 | 0.00 | 0.00 | 0.00 | 36 | 1018.9 |
| 20260501203745 | 10 | 0 | 4.8 | 8.0 | 0.00 | 0.00 | 0.00 | 35 | 1018.9 |
| 20260501203243 | 10 | 47 | 6.4 | 11.3 | 0.00 | 0.00 | 0.00 | 34 | 1019.1 |
| 20260501202739 | 11 | 48 | 6.4 | 9.7 | 0.00 | 0.00 | 0.00 | 33 | 1019.1 |
| 20260501202236 | 11 | 161 | 3.2 | 4.8 | 0.00 | 0.00 | 0.00 | 34 | 1018.9 |
| 20260501201733 | 11 | 120 | 3.2 | 11.3 | 0.00 | 0.00 | 0.00 | 34 | 1019.0 |
| 20260501201230 | 11 | 20 | 8.0 | 12.9 | 0.00 | 0.00 | 0.00 | 35 | 1018.9 |
| 20260501200727 | 12 | 33 | 8.0 | 11.3 | 0.00 | 0.00 | 0.00 | 34 | 1019.1 |
| 20260501200224 | 12 | 268 | 4.8 | 20.9 | 0.00 | 0.00 | 0.00 | 34 | 1019.2 |
| 20260501195721 | 12 | 202 | 0.0 | 4.8 | 0.00 | 0.00 | 0.00 | 32 | 1019.0 |
| 20260501195217 | 11 | 245 | 8.0 | 11.3 | 0.00 | 0.00 | 0.00 | 34 | 1019.0 |
| 20260501194713 | 11 | 356 | 8.0 | 11.3 | 0.00 | 0.00 | 0.00 | 35 | 1019.1 |
| 20260501194209 | 10 | 326 | 6.4 | 9.7 | 0.00 | 0.00 | 0.00 | 34 | 1019.3 |
| 20260501193705 | 11 | 15 | 4.8 | 9.7 | 0.00 | 0.00 | 0.00 | 37 | 1019.0 |
| 20260501193204 | 10 | 67 | 4.8 | 12.9 | 0.00 | 0.00 | 0.00 | 35 | 1019.1 |
| 20260501192701 | 10 | 175 | 4.8 | 14.5 | 0.00 | 0.00 | 0.00 | 36 | 1019.4 |
| 20260501192158 | 10 | 351 | 8.0 | 14.5 | 0.00 | 0.00 | 0.00 | 35 | 1019.1 |
| 20260501191655 | 10 | 99 | 3.2 | 8.0 | 0.00 | 0.00 | 0.00 | 36 | 1019.1 |
| 20260501191153 | 11 | 316 | 9.7 | 12.9 | 0.00 | 0.00 | 0.00 | 34 | 1019.1 |
| 20260501190649 | 10 | 64 | 4.8 | 8.0 | 0.00 | 0.00 | 0.00 | 36 | 1019.3 |
| 20260501190144 | 10 | 340 | 9.7 | 14.5 | 0.00 | 0.00 | 0.00 | 34 | 1019.2 |
| 20260501185640 | 11 | 34 | 8.0 | 14.5 | 0.00 | 0.00 | 0.00 | 34 | 1019.1 |
| 20260501185136 | 10 | 65 | 4.8 | 8.0 | 0.00 | 0.00 | 0.00 | 37 | 1019.2 |
| 20260501184633 | 10 | 20 | 8.0 | 12.9 | 0.00 | 0.00 | 0.00 | 35 | 1019.0 |
| 20260501184127 | 10 | 321 | 3.2 | 8.0 | 0.00 | 0.00 | 0.00 | 36 | 1019.2 |
| 20260501183625 | 10 | 82 | 11.3 | 14.5 | 0.00 | 0.00 | 0.00 | 35 | 1019.4 |
| 20260501183121 | 10 | 352 | 4.8 | 12.9 | 0.00 | 0.00 | 0.00 | 36 | 1019.2 |
| 20260501182618 | 9 | 28 | 6.4 | 11.3 | 0.00 | 0.00 | 0.00 | 38 | 1019.3 |
| 20260501182114 | 10 | 244 | 4.8 | 11.3 | 0.00 | 0.00 | 0.00 | 38 | 1019.5 |
| 20260501181612 | 10 | 311 | 6.4 | 11.3 | 0.00 | 0.00 | 0.00 | 37 | 1019.5 |
| 20260501181108 | 10 | 103 | 6.4 | 9.7 | 0.00 | 0.00 | 0.00 | 35 | 1019.3 |
| 20260501180607 | 10 | 190 | 1.6 | 8.0 | 0.00 | 0.00 | 0.00 | 36 | 1019.3 |